TimeCDT,TemperatureF,Dew PointF,Humidity,Sea Level PressureIn,VisibilityMPH,Wind Direction,Wind SpeedMPH,Gust SpeedMPH,PrecipitationIn,Events,Conditions,WindDirDegrees,DateUTC
1:15 AM,53.6,15.8,22,29.87,7.0,West,12.7,-,N/A,,Clear,280,2012-10-19 06:15:00
1:35 AM,53.6,15.8,22,29.88,8.0,West,11.5,-,N/A,,Partly Cloudy,280,2012-10-19 06:35:00
1:55 AM,51.8,15.8,24,29.88,8.0,West,10.4,-,N/A,,Scattered Clouds,270,2012-10-19 06:55:00
2:15 AM,50.0,15.8,26,29.88,9.0,West,11.5,-,N/A,,Partly Cloudy,270,2012-10-19 07:15:00
2:35 AM,51.8,15.8,24,29.88,9.0,West,13.8,-,N/A,,Partly Cloudy,280,2012-10-19 07:35:00
2:55 AM,51.8,15.8,24,29.88,10.0,West,13.8,-,N/A,,Clear,280,2012-10-19 07:55:00
3:15 AM,50.0,15.8,26,29.88,10.0,West,13.8,-,N/A,,Clear,270,2012-10-19 08:15:00
3:55 AM,50.0,15.8,26,29.87,10.0,West,16.1,-,N/A,,Clear,270,2012-10-19 08:55:00
4:15 AM,50.0,15.8,26,29.88,10.0,West,13.8,-,N/A,,Clear,280,2012-10-19 09:15:00
4:35 AM,50.0,14.0,24,29.88,10.0,West,17.3,23.0,N/A,,Clear,280,2012-10-19 09:35:00
4:55 AM,50.0,15.8,26,29.88,10.0,West,16.1,21.9,N/A,,Clear,280,2012-10-19 09:55:00
5:15 AM,48.2,14.0,25,29.89,10.0,West,16.1,24.2,N/A,,Clear,280,2012-10-19 10:15:00
5:35 AM,48.2,14.0,25,29.89,10.0,West,17.3,23.0,N/A,,Clear,280,2012-10-19 10:35:00
5:55 AM,48.2,15.8,27,29.90,10.0,West,16.1,24.2,N/A,,Clear,280,2012-10-19 10:55:00
6:15 AM,48.2,14.0,25,29.90,10.0,WNW,17.3,24.2,N/A,,Clear,290,2012-10-19 11:15:00
6:35 AM,48.2,14.0,25,29.90,10.0,WNW,18.4,23.0,N/A,,Clear,290,2012-10-19 11:35:00
6:55 AM,48.2,14.0,25,29.90,10.0,West,17.3,23.0,N/A,,Clear,280,2012-10-19 11:55:00
7:15 AM,46.4,14.0,27,29.91,10.0,West,16.1,-,N/A,,Clear,280,2012-10-19 12:15:00
7:35 AM,46.4,14.0,27,29.91,10.0,West,15.0,-,N/A,,Clear,280,2012-10-19 12:35:00
7:55 AM,46.4,14.0,27,29.91,10.0,West,15.0,-,N/A,,Clear,280,2012-10-19 12:55:00
8:15 AM,46.4,14.0,27,29.91,10.0,WNW,15.0,20.7,N/A,,Clear,290,2012-10-19 13:15:00
8:35 AM,48.2,14.0,25,29.91,10.0,WNW,18.4,23.0,N/A,,Clear,290,2012-10-19 13:35:00
8:55 AM,50.0,14.0,24,29.92,10.0,WNW,18.4,25.3,N/A,,Clear,290,2012-10-19 13:55:00
9:15 AM,50.0,14.0,24,29.92,10.0,WNW,21.9,28.8,N/A,,Clear,290,2012-10-19 14:15:00
9:35 AM,53.6,15.8,22,29.92,10.0,WNW,23.0,28.8,N/A,,Clear,300,2012-10-19 14:35:00
9:55 AM,55.4,15.8,21,29.93,10.0,NW,25.3,32.2,N/A,,Clear,310,2012-10-19 14:55:00
10:15 AM,55.4,17.6,23,29.93,10.0,NW,24.2,29.9,N/A,,Clear,310,2012-10-19 15:15:00
10:55 AM,57.2,19.4,23,29.94,10.0,NW,21.9,29.9,N/A,,Clear,310,2012-10-19 15:55:00
11:15 AM,59.0,19.4,22,29.93,10.0,NW,21.9,28.8,N/A,,Clear,310,2012-10-19 16:15:00
11:35 AM,59.0,19.4,22,29.94,10.0,NW,17.3,29.9,N/A,,Clear,320,2012-10-19 16:35:00
11:55 AM,60.8,21.2,22,29.94,10.0,NW,16.1,27.6,N/A,,Clear,310,2012-10-19 16:55:00
12:35 PM,62.6,21.2,20,29.93,10.0,WNW,20.7,28.8,N/A,,Clear,300,2012-10-19 17:35:00
12:55 PM,64.4,23.0,21,29.93,10.0,WNW,18.4,27.6,N/A,,Clear,290,2012-10-19 17:55:00
1:15 PM,64.4,23.0,21,29.91,10.0,WNW,21.9,28.8,N/A,,Clear,300,2012-10-19 18:15:00
1:35 PM,66.2,23.0,19,29.90,10.0,WNW,17.3,26.5,N/A,,Clear,290,2012-10-19 18:35:00
2:15 PM,68.0,23.0,18,29.89,10.0,NW,18.4,27.6,N/A,,Clear,320,2012-10-19 19:15:00
2:35 PM,68.0,21.2,17,29.87,10.0,NW,18.4,-,N/A,,Clear,310,2012-10-19 19:35:00
2:55 PM,68.0,21.2,17,29.87,10.0,NW,18.4,25.3,N/A,,Clear,310,2012-10-19 19:55:00
3:15 PM,69.8,19.4,15,29.86,10.0,WNW,20.7,27.6,N/A,,Clear,290,2012-10-19 20:15:00
4:15 PM,71.6,17.6,13,29.84,10.0,WNW,20.7,25.3,N/A,,Clear,300,2012-10-19 21:15:00
4:35 PM,71.6,17.6,13,29.84,10.0,WNW,17.3,26.5,N/A,,Clear,300,2012-10-19 21:35:00
4:55 PM,71.6,15.8,12,29.84,10.0,NW,17.3,21.9,N/A,,Clear,310,2012-10-19 21:55:00
5:15 PM,71.6,15.8,12,29.83,10.0,WNW,17.3,24.2,N/A,,Clear,300,2012-10-19 22:15:00
5:55 PM,68.0,14.0,12,29.83,10.0,NW,11.5,-,N/A,,Clear,310,2012-10-19 22:55:00
6:15 PM,68.0,14.0,12,29.83,10.0,NW,9.2,-,N/A,,Clear,320,2012-10-19 23:15:00
6:55 PM,62.6,15.8,16,29.82,10.0,NNW,6.9,-,N/A,,Clear,340,2012-10-19 23:55:00
7:15 PM,59.0,14.0,17,29.83,10.0,North,6.9,-,N/A,,Clear,350,2012-10-20 00:15:00
7:55 PM,55.4,17.6,23,29.84,10.0,North,3.5,-,N/A,,Clear,10,2012-10-20 00:55:00
8:15 PM,53.6,19.4,26,29.84,10.0,Calm,Calm,-,N/A,,Clear,0,2012-10-20 01:15:00
8:35 PM,55.4,17.6,23,29.84,10.0,Calm,Calm,-,N/A,,Partly Cloudy,0,2012-10-20 01:35:00
9:15 PM,55.4,17.6,23,29.84,10.0,Calm,Calm,-,N/A,,Partly Cloudy,0,2012-10-20 02:15:00
9:35 PM,50.0,17.6,28,29.84,10.0,Calm,Calm,-,N/A,,Scattered Clouds,0,2012-10-20 02:35:00
9:55 PM,50.0,19.4,30,29.84,10.0,SSE,4.6,-,N/A,,Scattered Clouds,150,2012-10-20 02:55:00
10:15 PM,50.0,19.4,30,29.83,10.0,East,3.5,-,N/A,,Scattered Clouds,100,2012-10-20 03:15:00
10:55 PM,46.4,21.2,37,29.84,10.0,South,6.9,-,N/A,,Clear,180,2012-10-20 03:55:00
11:15 PM,46.4,23.0,40,29.84,10.0,Calm,Calm,-,N/A,,Partly Cloudy,0,2012-10-20 04:15:00
11:35 PM,46.4,23.0,40,29.84,10.0,Calm,Calm,-,N/A,,Scattered Clouds,0,2012-10-20 04:35:00
11:55 PM,46.4,23.0,40,29.84,10.0,Calm,Calm,-,N/A,,Partly Cloudy,0,2012-10-20 04:55:00